Change the Weather History Date:

Friday, June 22, 2012

  Actual Average Record
Temperature  
Mean Temperature 80 °F 78 °F  
Max Temperature 93 °F 88 °F 99 °F (2006)
Min Temperature 68 °F 68 °F 55 °F (2003)
Cooling Degree Days 14 13  
Month to date cooling degree days 243  
Year to date cooling degree days 454  
Since 1 June cooling degree days 243  
Growing Degree Days 30 (Base 50)    
Moisture  
Dew Point 65 °F    
Average Humidity 65    
Maximum Humidity 90    
Minimum Humidity 35    
Precipitation  
Precipitation 0.09 in 0.17 in 1.16 in (2001)
Month to date precipitation 3.30  
Year to date precipitation 25.79  
Sea Level Pressure  
Sea Level Pressure 29.89 in    
Wind  
Wind Speed 2 mph (South)    
Max Wind Speed 14 mph    
Max Gust Speed 18 mph    
Visibility 8 miles    
Events Rain    
T = Trace of Precipitation, MM = Missing Value Source: NWS Daily Summary

Daily Weather History Graph

Daily Weather History Graph

Search for Another Location

Airport or City:

Trip Planner

Search our weather history database for the weather conditions in past years. The results will help you decide how hot, cold, wet, or windy it might be!

Date:

Astronomy

Jun. 22, 2012 Rise Set
Actual Time 6:27 AM EDT 8:51 PM EDT
Civil Twilight 5:57 AM EDT 9:20 PM EDT
Nautical Twilight 5:21 AM EDT 9:56 PM EDT
Astronomical Twilight 4:42 AM EDT 10:35 PM EDT
Moon 9:17 AM EDT (6/22) 10:57 PM EDT (6/22)
Length of Visible Light 15h 22m
Length of Day
14h 24m
Waxing Crescent, 9% of the Moon is Illuminated
Jun 22
Waxing Crescent
Jun 26
First Quarter
Jul 3
Full
Jul 10
Last Quarter
Jul 19
New

Hourly Weather History & Observations

Time (EDT) Temp. Heat Index Dew Point Humidity Pressure Visibility Wind Dir Wind Speed Gust Speed Precip Events Conditions
12:53 AM 73.9 °F - 64.0 °F 71% 29.95 in 9.0 mi Calm Calm - N/A   Clear
1:53 AM 73.9 °F - 64.0 °F 71% 29.94 in 9.0 mi Calm Calm - N/A   Mostly Cloudy
2:53 AM 71.1 °F - 64.9 °F 81% 29.93 in 9.0 mi Calm Calm - N/A   Clear
3:53 AM 70.0 °F - 64.9 °F 84% 29.91 in 8.0 mi Calm Calm - N/A   Clear
4:53 AM 69.1 °F - 64.9 °F 87% 29.91 in 8.0 mi Calm Calm - N/A   Clear
5:53 AM 69.1 °F - 64.9 °F 87% 29.91 in 8.0 mi Calm Calm - N/A   Clear
6:53 AM 68.0 °F - 64.9 °F 90% 29.91 in 6.0 mi Calm Calm - N/A   Scattered Clouds
7:53 AM 73.0 °F - 66.0 °F 79% 29.92 in 7.0 mi Calm Calm - N/A   Clear
8:53 AM 78.1 °F - 64.0 °F 62% 29.91 in 10.0 mi Calm Calm - N/A   Clear
9:53 AM 81.0 °F 82.5 °F 64.0 °F 56% 29.91 in 10.0 mi WSW 5.8 mph - N/A   Clear
10:53 AM 84.0 °F 85.4 °F 64.0 °F 51% 29.91 in 10.0 mi WSW 6.9 mph - N/A   Clear
11:53 AM 86.0 °F 87.6 °F 64.9 °F 49% 29.91 in 9.0 mi Calm Calm - N/A   Clear
12:53 PM 88.0 °F 89.3 °F 64.0 °F 45% 29.90 in 8.0 mi Calm Calm - N/A   Partly Cloudy
1:53 PM 91.0 °F 92.6 °F 64.0 °F 41% 29.88 in 8.0 mi Variable 4.6 mph - N/A   Partly Cloudy
2:53 PM 89.1 °F 90.0 °F 63.0 °F 42% 29.86 in 10.0 mi Calm Calm - N/A   Overcast
3:53 PM 91.0 °F 91.9 °F 63.0 °F 39% 29.83 in 10.0 mi Variable 3.5 mph - N/A   Mostly Cloudy
4:53 PM 91.9 °F 92.9 °F 63.0 °F 38% 29.82 in 10.0 mi SSW 9.2 mph - N/A   Mostly Cloudy
5:53 PM 91.9 °F 91.8 °F 61.0 °F 35% 29.81 in 10.0 mi Variable 4.6 mph - N/A   Mostly Cloudy
6:53 PM 91.0 °F 91.5 °F 62.1 °F 38% 29.81 in 10.0 mi South 5.8 mph - N/A   Mostly Cloudy
7:53 PM 78.1 °F - 69.1 °F 74% 29.85 in 4.0 mi ENE 9.2 mph 18.4 mph 0.01 in Rain Light Rain
7:59 PM 77.0 °F - 69.8 °F 78% 29.89 in 1.8 mi NE 13.8 mph 18.4 mph 0.01 in Rain Heavy Rain
8:08 PM 75.2 °F - 69.8 °F 83% 29.89 in 3.0 mi East 8.1 mph - 0.01 in Rain Light Rain
8:53 PM 75.0 °F - 70.0 °F 84% 29.85 in 8.0 mi SSE 3.5 mph - 0.03 in   Overcast
9:53 PM 77.0 °F - 69.1 °F 76% 29.86 in 10.0 mi Calm Calm - 0.02 in   Mostly Cloudy
10:53 PM 75.9 °F - 66.9 °F 74% 29.88 in 10.0 mi WNW 3.5 mph - 0.02 in   Partly Cloudy
11:53 PM 75.0 °F - 69.1 °F 82% 29.88 in 10.0 mi Calm Calm - 0.01 in   Overcast